Hourly Weather Papa

Today, 1 October, Thursday

Time Temperature Precipitation Wind Pressure Humidity
00:00 +13°C° 0.1 mm 4 mps 744 mmHg 79%
01:00 +13°C° 0 mm 5 mps 743 mmHg 80%
02:00 +12°C° 0.1 mm 4 mps 743 mmHg 80%
03:00 +12°C° 0.1 mm 4 mps 743 mmHg 81%
04:00 +12°C° 0.1 mm 4 mps 742 mmHg 82%
05:00 +12°C° 0.1 mm 4 mps 742 mmHg 81%
06:00 +12°C° 0.1 mm 4 mps 742 mmHg 81%
07:00 +12°C° 0.1 mm 4 mps 742 mmHg 81%
08:00 +12°C° 0.1 mm 3 mps 742 mmHg 80%
09:00 +13°C° 0.1 mm 3 mps 741 mmHg 80%
10:00 +13°C° 0.1 mm 3 mps 741 mmHg 80%
11:00 +13°C° 0.1 mm 3 mps 741 mmHg 78%
12:00 +14°C° 0.1 mm 3 mps 741 mmHg 76%
13:00 +16°C° 0.1 mm 2 mps 740 mmHg 74%
14:00 +16°C° 0 mm 2 mps 740 mmHg 72%
15:00 +17°C° 0 mm 2 mps 740 mmHg 70%
16:00 +18°C° 0 mm 1 mps 739 mmHg 68%
17:00 +16°C° 0 mm 1 mps 740 mmHg 72%
18:00 +15°C° 0 mm 1 mps 740 mmHg 76%
19:00 +13°C° 0 mm 1 mps 740 mmHg 79%
20:00 +13°C° 0 mm 1 mps 740 mmHg 80%
21:00 +13°C° 0 mm 1 mps 740 mmHg 81%
22:00 +12°C° 0 mm 1 mps 740 mmHg 82%
23:00 +12°C° 0 mm 1 mps 740 mmHg 84%

Tomorrow, 2 October, Friday

Time Temperature Precipitation Wind Pressure Humidity
00:00 +12°C° 0 mm 1 mps 740 mmHg 86%
01:00 +12°C° 0 mm 1 mps 740 mmHg 88%
02:00 +12°C° 0 mm 1 mps 740 mmHg 89%
03:00 +12°C° 0 mm 1 mps 740 mmHg 91%
04:00 +12°C° 0 mm 1 mps 740 mmHg 92%
05:00 +12°C° 0 mm 1 mps 740 mmHg 91%
06:00 +12°C° 0 mm 1 mps 740 mmHg 91%
07:00 +13°C° 0 mm 1 mps 740 mmHg 91%
08:00 +15°C° 0 mm 2 mps 740 mmHg 85%
09:00 +17°C° 0 mm 2 mps 740 mmHg 78%
10:00 +19°C° 0 mm 3 mps 740 mmHg 72%
11:00 +20°C° 0 mm 4 mps 740 mmHg 68%
12:00 +21°C° 0 mm 5 mps 740 mmHg 64%
13:00 +22°C° 0 mm 6 mps 740 mmHg 60%
14:00 +21°C° 0 mm 6 mps 740 mmHg 61%
15:00 +21°C° 0 mm 5 mps 739 mmHg 61%
16:00 +21°C° 0 mm 5 mps 739 mmHg 62%
17:00 +20°C° 0 mm 5 mps 739 mmHg 64%
18:00 +20°C° 0 mm 5 mps 739 mmHg 65%
19:00 +19°C° 0 mm 5 mps 739 mmHg 66%
20:00 +19°C° 0 mm 5 mps 740 mmHg 69%
21:00 +18°C° 0 mm 4 mps 740 mmHg 71%
22:00 +17°C° 0 mm 4 mps 740 mmHg 73%
23:00 +17°C° 0 mm 4 mps 740 mmHg 71%

Day after tomorrow, 3 October, Saturday

Time Temperature Precipitation Wind Pressure Humidity
00:00 +16°C° 0 mm 5 mps 739 mmHg 70%
01:00 +16°C° 0 mm 5 mps 739 mmHg 68%
02:00 +17°C° 0 mm 6 mps 739 mmHg 69%
03:00 +17°C° 0 mm 6 mps 739 mmHg 69%
04:00 +17°C° 0 mm 7 mps 739 mmHg 69%
05:00 +17°C° 0 mm 7 mps 739 mmHg 69%
06:00 +17°C° 0 mm 7 mps 739 mmHg 70%
07:00 +17°C° 0 mm 7 mps 739 mmHg 70%
08:00 +20°C° 0 mm 7 mps 739 mmHg 65%
09:00 +22°C° 0 mm 8 mps 739 mmHg 59%
10:00 +24°C° 0 mm 8 mps 739 mmHg 54%
11:00 +26°C° 0 mm 8 mps 739 mmHg 51%
12:00 +27°C° 0 mm 8 mps 738 mmHg 48%
13:00 +28°C° 0 mm 8 mps 738 mmHg 45%
14:00 +28°C° 0 mm 7 mps 738 mmHg 46%
15:00 +28°C° 0 mm 7 mps 737 mmHg 47%
16:00 +28°C° 0 mm 6 mps 737 mmHg 48%
17:00 +27°C° 0 mm 6 mps 737 mmHg 49%
18:00 +26°C° 0 mm 6 mps 737 mmHg 50%
19:00 +24°C° 0 mm 7 mps 737 mmHg 51%
20:00 +23°C° 0.4 mm 6 mps 737 mmHg 60%
21:00 +21°C° 0.4 mm 5 mps 738 mmHg 68%
22:00 +20°C° 0.4 mm 4 mps 738 mmHg 76%
23:00 +19°C° 0.6 mm 5 mps 738 mmHg 80%

4 October, Sunday

Time Temperature Precipitation Wind Pressure Humidity
00:00 +17°C° 0.6 mm 5 mps 738 mmHg 83%
01:00 +16°C° 0.6 mm 5 mps 738 mmHg 86%
02:00 +16°C° 0.6 mm 6 mps 738 mmHg 85%
03:00 +15°C° 0.6 mm 7 mps 739 mmHg 84%
04:00 +15°C° 0.6 mm 7 mps 739 mmHg 83%
05:00 +15°C° 0.1 mm 7 mps 739 mmHg 83%
06:00 +13°C° 0.1 mm 8 mps 740 mmHg 84%
07:00 +13°C° 0.1 mm 8 mps 741 mmHg 84%
08:00 +16°C° 0 mm 8 mps 741 mmHg 76%
09:00 +17°C° 0 mm 8 mps 741 mmHg 68%
10:00 +20°C° 0 mm 8 mps 742 mmHg 60%
11:00 +21°C° 0 mm 8 mps 742 mmHg 56%
12:00 +22°C° 0 mm 8 mps 742 mmHg 51%
13:00 +23°C° 0 mm 7 mps 742 mmHg 47%
14:00 +22°C° 0 mm 6 mps 742 mmHg 49%
15:00 +22°C° 0 mm 6 mps 742 mmHg 51%
16:00 +22°C° 0 mm 5 mps 742 mmHg 53%
17:00 +20°C° 0 mm 4 mps 742 mmHg 58%
18:00 +19°C° 0 mm 4 mps 742 mmHg 62%
19:00 +17°C° 0 mm 3 mps 742 mmHg 66%
20:00 +17°C° 0 mm 3 mps 742 mmHg 66%
21:00 +17°C° 0 mm 3 mps 742 mmHg 67%
22:00 +17°C° 0 mm 3 mps 742 mmHg 67%
23:00 +16°C° 0 mm 3 mps 741 mmHg 71%

5 October, Monday

Time Temperature Precipitation Wind Pressure Humidity
00:00 +16°C° 0 mm 3 mps 741 mmHg 75%
01:00 +14°C° 0 mm 3 mps 741 mmHg 79%
02:00 +14°C° 0 mm 3 mps 741 mmHg 79%
03:00 +14°C° 0 mm 4 mps 741 mmHg 79%
04:00 +14°C° 0 mm 4 mps 741 mmHg 79%
05:00 +14°C° 0 mm 4 mps 741 mmHg 77%
06:00 +14°C° 0 mm 4 mps 741 mmHg 76%
07:00 +14°C° 0 mm 4 mps 742 mmHg 75%
08:00 +16°C° 0 mm 5 mps 742 mmHg 68%
09:00 +19°C° 0 mm 6 mps 742 mmHg 62%
10:00 +21°C° 0 mm 8 mps 742 mmHg 56%
11:00 +21°C° 0 mm 8 mps 743 mmHg 55%
12:00 +21°C° 0 mm 8 mps 743 mmHg 54%
13:00 +21°C° 0 mm 8 mps 743 mmHg 53%
14:00 +21°C° 0 mm 7 mps 743 mmHg 54%
15:00 +21°C° 0 mm 6 mps 743 mmHg 55%
16:00 +21°C° 0 mm 6 mps 743 mmHg 56%
17:00 +19°C° 0 mm 5 mps 743 mmHg 61%
18:00 +18°C° 0 mm 4 mps 743 mmHg 67%
19:00 +17°C° 0 mm 3 mps 744 mmHg 72%
20:00 +17°C° 0 mm 3 mps 744 mmHg 73%
21:00 +16°C° 0 mm 2 mps 744 mmHg 75%
22:00 +16°C° 0 mm 2 mps 744 mmHg 76%
23:00 +16°C° 0 mm 1 mps 744 mmHg 76%

6 October, Tuesday

Time Temperature Precipitation Wind Pressure Humidity
00:00 +15°C° 0 mm 1 mps 744 mmHg 76%
01:00 +15°C° 0 mm 1 mps 743 mmHg 76%
02:00 +15°C° 0 mm 1 mps 743 mmHg 77%
03:00 +15°C° 0 mm 1 mps 743 mmHg 78%
04:00 +15°C° 0 mm 2 mps 743 mmHg 78%
05:00 +14°C° 0 mm 2 mps 743 mmHg 79%
06:00 +14°C° 0 mm 2 mps 743 mmHg 81%
07:00 +13°C° 0 mm 3 mps 743 mmHg 82%
08:00 +13°C° 0.4 mm 4 mps 743 mmHg 83%
09:00 +13°C° 0.4 mm 4 mps 743 mmHg 84%
10:00 +13°C° 0.4 mm 5 mps 743 mmHg 85%
11:00 +13°C° 2 mm 5 mps 743 mmHg 87%
12:00 +12°C° 2 mm 5 mps 743 mmHg 89%
13:00 +11°C° 2 mm 6 mps 743 mmHg 91%
14:00 +12°C° 0.5 mm 5 mps 743 mmHg 91%
15:00 +12°C° 0.5 mm 5 mps 744 mmHg 91%
16:00 +12°C° 0.5 mm 4 mps 744 mmHg 90%
17:00 +11°C° 0.4 mm 4 mps 744 mmHg 91%
18:00 +11°C° 0.4 mm 4 mps 745 mmHg 91%
19:00 +11°C° 0.4 mm 4 mps 745 mmHg 92%
20:00 +11°C° 0.1 mm 4 mps 746 mmHg 92%
21:00 +11°C° 0.1 mm 3 mps 746 mmHg 91%
22:00 +12°C° 0.1 mm 2 mps 747 mmHg 91%
23:00 +12°C° 0 mm 2 mps 747 mmHg 91%
Show more

We Need Your Consent

Meteoprog and our Service Providers may store and access personal data such as cookies, device identifiers or other similar technologies on your device and process such data to personalise content and ads, as well as provide social media features and to analyse the traffic.

  • Store and/or access information on your device

    Cookies, device identifiers or other information can be stored or accessed on your device for the purposes indicated above.

  • Personalised ads and content, ad and content measurement, audience insights, and products development

    Ads and content can be personalised based on a profile. More data can be added to better personalise ads and content. Ad and content performance can be measured. Insights about the audience who saw the ads and content can be derived. Such data can be used to develop or improve user’s experience, systems and software.

By clicking ‘I Agree’ you will allow the use of indicated cookies, device identifiers, web beacons or other similar technologies. Your settings can be changed in the browser on your device.

For certain purposes, legitimate interests may be relied on, rather than consent. You can read more about this in our Privacy and Cookie Policy.